Regional Weather Roundup
Issued by NWS Austin/San Antonio, TX

Current Version | Previous Version | Text Only | Print | Product List | Glossary On
Versions: 1 2 3 4 5 6 7 8 9 10 11 12 13 14 15 16 17 18 19 20 21 22 23 24 25 26 27 28 29 30 31 32 33 34 35 36 37 38 39 40 41 42 43 44 45 46 47 48 49 50
000
ASUS44 KEWX 231202
RWREWX
SOUTH TEXAS REGIONAL WEATHER ROUNDUP
NATIONAL WEATHER SERVICE AUSTIN/SAN ANTONIO TX
700 AM CDT FRI OCT 23 2020

NOTE: "FAIR" INDICATED FEW OR NO CLOUDS BELOW 12,000 FEET WITH NO
SIGNIFICANT WEATHER AND/OR OBSTRUCTIONS TO VISIBILITY.

* - THESE STATIONS ARE NOT NWS OR FAA STATIONS...AND ARE NOT SUBJECT
    TO NWS AND FAA QUALITY CONTROL.

TXZ171-172-183>190-231300-
TEXAS HILL COUNTRY AND EDWARDS PLATEAU

CITY           SKY/WX    TMP DP  RH WIND       PRES   REMARKS
JUNCTION       CLOUDY    73  68  84 SW5       29.94R
6HR MIN TEMP:  69; 6HR MAX TEMP:  73;

*LLANO         CLOUDY    73  66  78 SE3       29.91S
BURNET         CLOUDY    73  68  84 SE5       29.95R
6HR MIN TEMP:  73; 6HR MAX TEMP:  74;

*HORSESHOE BAY CLOUDY    73  66  78 CALM      29.93R
*LAGO VISTA    CLOUDY    72  70  94 CALM      29.95R
6HR MIN TEMP:  71; 6HR MAX TEMP:  72;

*KERRVILLE     CLOUDY    72  67  85 S8        29.94S
6HR MIN TEMP:  72; 6HR MAX TEMP:  74;

*FREDERICKSBRG CLOUDY    72  66  81 S6        29.94R
*ROCKSPRINGS   CLOUDY    68  66  94 S8        30.01R FOG
*BOERNE        CLOUDY    72  70  94 S7        29.95R
*CASTROVILLE   CLOUDY    77  72  83 S6        29.93S
HONDO          CLOUDY    75  69  81 S8        29.92R
6HR MIN TEMP:  74; 6HR MAX TEMP:  75;

*UVALDE        CLOUDY    74  71  89 S5        29.94R
6HR MIN TEMP:  73; 6HR MAX TEMP:  75;

DEL RIO        CLOUDY    75  71  87 E10G22    29.90R
6HR MIN TEMP:  74; 6HR MAX TEMP:  78;

*LAUGHLIN AFB  CLOUDY    73  70  92 SE10      29.91R
6HR MIN TEMP:  72; 6HR MAX TEMP:  75;

*SPOFFORD      CLOUDY   N/A N/A N/A SE8       29.86R
*EAGLE PASS    NOT AVBL
CARRIZO SPRGS  CLOUDY    73  72  94 SE6       29.89S
*FAITH RANCH   CLOUDY    73  72  94 SE5       29.92R
$$

TXZ173-191>194-202-209-217>225-228-231300-
CENTRAL AND SOUTH CENTRAL TEXAS

CITY           SKY/WX    TMP DP  RH WIND       PRES   REMARKS
GEORGETOWN     CLOUDY    73  70  90 E5        29.95R
6HR MIN TEMP:  73; 6HR MAX TEMP:  74;

*TAYLOR        CLOUDY    73  71  94 E6        29.93S
6HR MIN TEMP:  73; 6HR MAX TEMP:  75; 6HR PCP:  0.01;

AUSTIN/BERGSTM CLOUDY    75  73  93 SE6       29.91S
6HR MIN TEMP:  74; 6HR MAX TEMP:  76; 6HR PCP: TRACE;

AUSTIN/MABRY   CLOUDY    76  70  82 VRB5      29.93R
6HR MIN TEMP:  75; 6HR MAX TEMP:  77; 6HR PCP: TRACE;

*PFLUGERVILLE  CLOUDY    73  72  94 CALM      29.93S FOG
SAN MARCOS     CLOUDY    74  73  97 S6        29.92R
6HR MIN TEMP:  74; 6HR MAX TEMP:  75;

NEW BRAUNFELS  CLOUDY    76  71  85 S3        29.90S
6HR MIN TEMP:  75; 6HR MAX TEMP:  78; 6HR PCP: TRACE;

*RANDOLPH AFB  CLOUDY    74  71  91 S7        29.91R
6HR MIN TEMP:  74; 6HR MAX TEMP:  75;

*SEGUIN        CLOUDY    72  71  96 S3        29.95R
6HR MIN TEMP:  72; 6HR MAX TEMP:  74;

SAN ANTONIO    LGT RAIN  75  71  87 S10       29.92S
6HR MIN TEMP:  75; 6HR MAX TEMP:  76; 6HR PCP: TRACE;

STINSON FIELD  CLOUDY    73  72  96 S5        29.90R
6HR MIN TEMP:  73; 6HR MAX TEMP:  74;

*KELLY FIELD   CLOUDY    75  71  87 S8        29.90R
6HR MIN TEMP:  75; 6HR MAX TEMP:  76;

*PLEASANTON    CLOUDY    75  73  92 CALM      29.91S
6HR MIN TEMP:  75; 6HR MAX TEMP:  76;

*KENEDY        CLOUDY    75  73  95 CALM      29.91S
6HR MIN TEMP:  74; 6HR MAX TEMP:  76;

*LA GRANGE     CLOUDY    76  76 100 CALM      29.91R
6HR MIN TEMP:  76; 6HR MAX TEMP:  77;

*GIDDINGS      MOCLDY    75  73  93 CALM      29.94R
6HR MIN TEMP:  75; 6HR MAX TEMP:  78;

*GONZALES      CLOUDY    75  75 100 CALM      29.90S
$$

TXZ163>164-176>182-195>201-210>213-226-227-235-231300-
SOUTHEAST TEXAS

CITY           SKY/WX    TMP DP  RH WIND       PRES   REMARKS
COLLEGE STN    CLOUDY    74  73  97 E6        29.94R
6HR MIN TEMP:  73; 6HR MAX TEMP:  75; 6HR PCP: TRACE;

*BRYAN         CLOUDY    72  72 100 CALM      29.95S FOG
6HR MIN TEMP:  71; 6HR MAX TEMP:  73;

*CALDWELL      CLOUDY    73 N/A N/A CALM      29.95R
6HR MIN TEMP:  73; 6HR MAX TEMP:  75;

*CROCKETT      NOT AVBL
*BRENHAM       CLOUDY    74  74 100 SE3       29.93R FOG
HUNTSVILLE     CLOUDY    76  71  85 CALM      29.95S
6HR MIN TEMP:  75; 6HR MAX TEMP:  77;

CONROE         CLOUDY    75  73  93 E3        29.94R FOG
6HR MIN TEMP:  75; 6HR MAX TEMP:  76; 6HR PCP: TRACE;

HOUSTON BUSH   MOCLDY    73  71  93 N3        29.93R
6HR MIN TEMP:  72; 6HR MAX TEMP:  76;

HOUSTON HOBBY  PTCLDY    75  73  93 CALM      29.92R
6HR MIN TEMP:  75; 6HR MAX TEMP:  77;

*HOUSTON SW AP PTCLDY    70  70 100 CALM      29.93R FOG
6HR MIN TEMP:  69; 6HR MAX TEMP:  73;

PEARLAND       CLOUDY    73  70  90 CALM      29.93R FOG
6HR MIN TEMP:  72; 6HR MAX TEMP:  77; 6HR PCP: TRACE;

HOUSTON HOOKS  FOG       73  71  93 CALM      29.93R VSB 1/4
6HR MIN TEMP:  69; 6HR MAX TEMP:  73;

ELLINGTON FLD  PTCLDY    73  72  94 E3        29.92R
SUGAR LAND     CLOUDY    76  74  93 E3        29.92R
6HR MIN TEMP:  74; 6HR MAX TEMP:  76;

*HOUSTON EXEC  CLOUDY    73  73 100 CALM      29.93S FOG
*CLEVELAND MUN CLOUDY    74  74  98 CALM      29.95S FOG
6HR MIN TEMP:  74; 6HR MAX TEMP:  75;

*WHARTON       FOG       71  70  97 E3        29.92R VSB 1/4
6HR MIN TEMP:  70; 6HR MAX TEMP:  73;

*COLUMBUS      NOT AVBL
*EAGLE LAKE    FOG       72  71  97 CALM      29.92R VSB 1/4
6HR MIN TEMP:  71; 6HR MAX TEMP:  74;

$$

TXZ214>216-236>238-231300-
THE UPPER TEXAS COAST

CITY           SKY/WX    TMP DP  RH WIND       PRES   REMARKS
*ORANGE        CLOUDY    75  73  94 E3        29.96R FOG
6HR MIN TEMP:  75; 6HR MAX TEMP:  77;

PORT ARTHUR    LGT RAIN  75  75 100 E6        29.92S
6HR MIN TEMP:  75; 6HR MAX TEMP:  76; 6HR PCP:  0.12;

GALVESTON      MOCLDY    78  74  87 E5        29.92R
6HR MIN TEMP:  78; 6HR MAX TEMP:  79; 6HR PCP:  0.01;

ANGLETON       FOG       70  69  97 CALM      29.91R VSB 1/2
6HR MIN TEMP:  70; 6HR MAX TEMP:  75;

*BAY CITY      FOG       70  70  99 CALM      29.90S VSB 3/4
PALACIOS       CLEAR     73  73 100 E3        29.89S FOG
6HR MIN TEMP:  72; 6HR MAX TEMP:  77;

$$

TXZ229>234-239>247-231300-
TEXAS COASTAL BEND AND RIO GRANDE PLAINS

CITY           SKY/WX    TMP DP  RH WIND       PRES   REMARKS
VICTORIA       FOG       73  72  96 CALM      29.90R VSB 1/4
6HR MIN TEMP:  71; 6HR MAX TEMP:  73;

*BEEVILLE      NOT AVBL
ROCKPORT       MOCLDY    77  76  96 SE3       29.88S
6HR MIN TEMP:  76; 6HR MAX TEMP:  78;

*PORT ARANSAS  PTCLDY    78  75  90 SE7       29.90R
6HR MIN TEMP:  78; 6HR MAX TEMP:  79;

*PORT LAVACA   FOG       73  70  88 SE3       29.87S VSB 1/4
*INGLESIDE     PTCLDY   N/A N/A N/A CALM      29.87S
CORPUS CHRISTI MOCLDY    73  72  94 SE3       29.88R
CORPUS NAS     PTCLDY    78  76  93 SE5       29.88R
6HR MIN TEMP:  78; 6HR MAX TEMP:  80;

*ROBSTOWN      FOG       73  73  99 CALM      29.89R VSB 1/2
ALICE          FOG       74  74 100 SE3       29.88R VSB 1/4
6HR MIN TEMP:  73; 6HR MAX TEMP:  75;

KINGSVILLE NAS FOG       71  70  96 CALM      29.88  VSB 1/4
6HR MIN TEMP:  71; 6HR MAX TEMP:  74;

COTULLA        CLOUDY    76  72  87 SE6       29.90R
6HR MIN TEMP:  76; 6HR MAX TEMP:  78;

LAREDO         CLOUDY    77  72  84 S10       29.89R
6HR MIN TEMP:  76; 6HR MAX TEMP:  77;

$$

TXZ248>255-231300-
DEEP SOUTH TEXAS

CITY           SKY/WX    TMP DP  RH WIND       PRES   REMARKS
BROWNSVILLE    CLEAR     75  73  93 E3        29.87R
6HR MIN TEMP:  74; 6HR MAX TEMP:  77;

PORT ISAB



USA.gov is the U.S. government's official web portal to all federal, state and local government web resources and services.